Kezdőlap
METAR-TAF:

METAR-TAF

Repülőterek :

Viña del Mar, Chile

földrajzi szélesség: 32-56-59S, földrajzi hosszúság: 71-28-43W, magasság: 141 m

Jelenlegi meteorológiai megfigyelések

A jelentés 17 perccel ezelõtt készült, 21:00 UTC
Nyugati szél 7 kt
Hőmérséklet 14°C
Páratartalom 82%
Légköri nyomás 1019 hPa
Látótávolság 10 km, vagy több
Szakadozott felhőzet 3000 lábon
Borult 3500 lábon

METAR: SCVM 232100Z 26007KT 9999 BKN030 OVC035 14/11 Q1019

Idő: 18:17 (21:17 UTC)


TAF: hiányzik

Meteorológiai megfigyelések és előrejelzések több, mint 4000 repülőtéren (METAR és TAF jelentéseket).

A térképen piros és sárga pontok jelzik az elérhető meteorológiai állomásokat.

Mozgassa az egeret a pont fölött, hogy megjelenjen az állomás neve.

Azután kattintson az időjárási megfigyelések és előrejelzések megtekintéséhez.

A térkép megváltoztatása: kattintson a fekete keresztel jelölt zöld gombra ráközelítéshez, a vonallal jelölt zöld gombra távolításhoz, vagy a zöld nyilakra a szomszédos térképek eléréséhez.


METAR-TAF: